Home   Weather   Ogden   Past weeks
Flag for USA

Past Weather in Ogden, Utah, USA — Yesterday and Last 2 Weeks

Now
43 °F

Overcast.


Feels Like: 39 °F
Forecast: 56 / 39 °F
Wind: 7 mph from South

Location: Ogden-Hinckley Airport

Current Time: Oct 22, 2019 at 2:57:31 am

Latest Report: Oct 22, 2019 at 1:53 am


Visibility: 10 mi

Pressure: 30.30 "Hg (25.81 "Hg at 1310m altitude)

Humidity: 62%

Dew Point: 31 °F

Location of OgdenLocation

Past Weather in Ogden — Graph

°F

Ogden Temperature Yesterday

Maximum temperature yesterday: 52 °F (at 4:53 pm)
Minimum temperature yesterday: 40 °F (at 9:53 pm)
Average temperature yesterday: 45 °F

High & Low Weather Summary for the Past Weeks

 TemperatureHumidityPressure
High73 °F (Oct 16, 3:53 pm)93% (Oct 18, 3:53 am)30.51 "Hg (Oct 18, 3:53 am)
Low23 °F (Oct 11, 5:53 am)9% (Oct 16, 3:53 pm)29.48 "Hg (Oct 17, 4:53 pm)
Average46 °F41%30.02 "Hg
* Reported Oct 7 12:53 am — Oct 22 12:53 am, Ogden. Weather by CustomWeather, © 2019

Note: Actual official high and low records may vary slightly from our data, if they occured in-between our weather recording intervals... More about our weather records

Advertising

Ogden Weather History for the Previous 24 Hours

Scroll right to see more
 ConditionsComfort  
Time TempWeatherWind HumidityBarometerVisibility
12:53 am
Tue, Oct 22
41 °FPassing clouds.7 mph67%30.31 "Hg10 mi
11:53 pm
Mon, Oct 21
40 °FPassing clouds.7 mph70%30.32 "Hg10 mi
10:53 pm41 °FOvercast.3 mph70%30.31 "Hg10 mi
9:53 pm40 °FPassing clouds.No wind68%30.31 "Hg10 mi
8:53 pm42 °FClear.No wind62%30.29 "Hg10 mi
7:53 pm43 °FPassing clouds.6 mph60%30.26 "Hg10 mi
6:53 pm48 °FPassing clouds.3 mph44%30.23 "Hg10 mi
5:53 pm51 °FPartly sunny.N/A39%30.22 "Hg10 mi
4:53 pm52 °FMostly cloudy.3 mph38%30.20 "Hg10 mi
3:53 pm50 °FPassing clouds.No wind43%30.19 "Hg10 mi
2:53 pm51 °FPartly sunny.3 mph41%30.18 "Hg10 mi
1:53 pm51 °FPartly sunny.3 mph42%30.19 "Hg10 mi
12:53 pm48 °FMore clouds than sun.6 mph52%30.20 "Hg10 mi
11:53 am48 °FBroken clouds.8 mph54%30.19 "Hg10 mi
10:53 am46 °FScattered clouds.3 mph56%30.19 "Hg10 mi
9:53 am43 °FPassing clouds.6 mph68%30.18 "Hg10 mi
8:53 am41 °FMore clouds than sun.6 mph74%30.15 "Hg10 mi
7:53 am41 °FMostly cloudy.3 mph65%30.13 "Hg10 mi
6:53 am42 °FLight rain. Overcast.6 mph57%30.10 "Hg10 mi
5:53 am42 °FOvercast.5 mph53%30.06 "Hg10 mi
4:53 am42 °FMostly cloudy.8 mph55%30.05 "Hg10 mi
3:53 am41 °FOvercast.10 mph58%30.05 "Hg10 mi
2:53 am42 °FOvercast.10 mph47%30.06 "Hg10 mi
Weather by CustomWeather, © 2019

See weather overview